sat.trackr.live / text

‹ back to catalog

GONETS-M 12

NORAD 40553 · 2015-020B

PAYLOAD ACTIVE UNKNOWN

§ Identity

Operator
Country
CIS
Launch date
2015-03-31
Launch site
PLMSC
Launch vehicle
Mass (kg)
RCS (m²)
1.59

External: N2YO · Heavens-Above · Gunter

§ Orbital elements

Epoch: 2026-05-25T04:49:51.629664Z

Period
115.86 min
Inclination
82.4912°
Eccentricity
0.0016230
Mean motion
12.42890239 rev/d
Perigee alt
1,481.6 km
Apogee alt
1,507.2 km
Semi-major
7,872.5 km
B*
-5.2767e-4
RAAN
46.4305°
Arg perigee
39.2977°
Mean anomaly
320.9278°
Rev number
50,587

§ Raw data

GONETS-M 121 40553U 15020B   26145.20129201 -.00000063  00000+0 -52767-3 0  99902 40553  82.4912  46.4305 0016230  39.2977 320.9278 12.42890239505872

JSON: /api/v1/satellites/40553 · /tle

For live sub-satellite position, see the globe view (requires WebGL).

§ Visibility from observer

Set your observer location to see the next 7 days of passes ≥ 10°. The values pass through the URL so the page stays shareable.

No JS? Fill the form by hand. The geolocation button needs JavaScript.

§ Radio — SatNOGS DB

ModeDescriptionDownlinkUplink
FM Telemetry 266.951 MHz
FM UHF Unknown 387.062 MHz
FM UHF Unknown 387.625 MHz
FM UHF Unknown 387.837 MHz

4 transmitters · refreshed weekly from db.satnogs.org